Location: Newark
(42.7133°N, 87.7910°W)
Time: 12:27:49
(UTC+00:00)

Tiros 1 - Pass Details

Date: 26 September 2019
Orbit: 630 x 664 km, 48.4° (Epoch: 20 October)

Event Time Altitude Azimuth Distance (km) Brightness Sun altitude
Rises 16:28:14 0° 233° (SW) 2,979 10.7 42.9°
Reaches altitude 10° 16:30:36 10° 230° (SW) 2,066 10.0 43.1°
Maximum altitude 16:35:20 67° 149° (SSE) 709 8.9 43.4°
Drops below altitude 10° 16:40:02 10° 67° (ENE) 2,054 9.8 43.8°
Sets 16:42:23 0° 65° (ENE) 2,961 10.5 43.9°
